sat.trackr.live / text

‹ back to catalog

STARLINK-5450

NORAD 54778 · 2022-175W

PAYLOAD ACTIVE UNKNOWN

§ Identity

Operator
Country
US
Launch date
2022-12-17
Launch site
AFETR
Launch vehicle
Mass (kg)
RCS (m²)

Purposes: comms

External: N2YO · Heavens-Above · Gunter

§ Orbital elements

Epoch: 2026-05-25T03:56:11.719392Z

Period
95.44 min
Inclination
53.2119°
Eccentricity
0.0001399
Mean motion
15.08839615 rev/d
Perigee alt
538.8 km
Apogee alt
540.7 km
Semi-major
6,917.9 km
B*
-1.4234e-5
RAAN
45.8791°
Arg perigee
79.9300°
Mean anomaly
280.1850°
Rev number
19,167

§ Raw data

STARLINK-54501 54778U 22175W   26145.16402453 -.00000514  00000+0 -14234-4 0  99902 54778  53.2119  45.8791 0001399  79.9300 280.1850 15.08839615191672

JSON: /api/v1/satellites/54778 · /tle

For live sub-satellite position, see the globe view (requires WebGL).

§ Visibility from observer

Set your observer location to see the next 7 days of passes ≥ 10°. The values pass through the URL so the page stays shareable.

No JS? Fill the form by hand. The geolocation button needs JavaScript.